Other Public Products
Issued by NWS Charleston, SC

Current Version | Previous Version | Text Only | Print | Product List | Glossary Off
Versions: 1 2 3 4 5 6 7 8 9 10 11 12 13 14 15 16 17 18 19 20 21 22 23 24 25 26 27 28 29 30 31 32 33 34 35 36 37 38 39 40 41 42 43 44 45 46 47 48 49 50

217
FPUS82 KCHS 140912
OPUCHS

TEST...KCHS/KSAV Gateway Observations...TEST
National Weather Service Charleston SC
400 AM EST THU DEC 14 2017

NOTE: "fair" indicates few or no clouds below 12,000 feet with no
significant weather and/or obstructions to visibility.

SCZ050-WAZ558-NCZ071-TXZ119-213-PAZ071-DCZ001-FLZ074-172-MI076-
NYZ176-178-MAZ016-IL014-TNZ027-NJZ106-GAZ044-MD014-141000-

...Gateway Observations for Charleston International...

CITY           SKY/WX    TMP DP  RH WIND       PRES   REMARKS
Chas Airport   CLEAR     43  26  51 W9        29.88F
Seattle        CLOUDY    40  38  93 NE7       30.38F WCI  35
Charlotte      PTCLDY    38  19  46 SW7       29.72R WCI  33
Dallas DFW     PTCLDY    42  31  64 N9        29.89R
Dallas Love    PTCLDY    41  34  76 NE3       29.90S
Philladelphia  CLOUDY    30  27  88 CALM      29.53F
Wash National  PTCLDY    36  19  50 S12       29.52F WCI  28
Baltimore      MOCLDY    35  18  49 SW7       29.50F WCI  29
Miami          CLEAR     51  47  86 CALM      30.06R
Detroit        CLOUDY    22  16  78 N10       29.75R WCI  11
Newark         CLOUDY    25  22  88 N7        29.55F WCI  17
Laguardia      CLOUDY    25  21  85 E6        29.56F WCI  18
J F K          FLURRIES  24  23  96 NE7       29.57F WCI  16
Boston Logan   CLOUDY    23   8  52 W15G22    29.59F WCI  10
Ft. Lauderdale CLEAR     50  46  86 CALM      30.05R
Chicago O`Hare PTCLDY    20  12  71 N12       29.90R WCI   8
Chicago Midway PTCLDY    23  16  74 NW12      29.90R WCI  12
Houston Bush   MOCLDY    43  40  89 CALM      29.94F
Houston Hobby  CLOUDY    46  42  86 CALM      29.95S
Nashville      CLEAR     42  28  57 NW9       29.86R
Atlanta        PTCLDY    40  28  62 W7        29.85S WCI  35

$$

GAZ044-118-TXZ119-213-NCZ071-DCZ001-MDZ014-506-PAZ021-071-NJZ106-
NYZ176-178-MAZ106-OHZ011-021-055-MIZ076-KYZ091-ILZ014-INZ047-
MNZ060-ONZ431-141000-

...Gateway Observations for Savannah International...

CITY           SKY/WX    TMP DP  RH WIND       PRES   REMARKS
Savannah Arpt  CLEAR     40  31  70 SW8       29.95S WCI  34
Atlanta        PTCLDY    40  28  62 W7        29.85S WCI  35
Charlotte      PTCLDY    38  19  46 SW7       29.72R WCI  33
Dallas DFW     PTCLDY    42  31  64 N9        29.89R
Houston Bush   MOCLDY    43  40  89 CALM      29.94F
Wash National  PTCLDY    36  19  50 S12       29.52F WCI  28
Wash Dulles    PTCLDY    31  16  54 S9        29.49F WCI  23
Baltimore      MOCLDY    35  18  49 SW7       29.50F WCI  29
Philadelphia   CLOUDY    30  27  88 CALM      29.53F
Newark         CLOUDY    25  22  88 N7        29.55F WCI  17
Laguardia      CLOUDY    25  21  85 E6        29.56F WCI  18
J F K          FLURRIES  24  23  96 NE7       29.57F WCI  16
Boston         CLOUDY    23   8  52 W15G22    29.59F WCI  10
Pittsburg      LGT SNOW  32  29  88 W16G23    29.47R BLWGSNOWWCI  21
Akron          LGT SNOW  23  18  81 NW12      29.58R WCI  12
Cleveland      LGT SNOW  28  24  85 NW20      29.66R BLWGSNOWWCI  15
Cincinnati     CLOUDY    31  22  69 NW22      29.78R WCI  18
Columbus       CLOUDY    30  22  73 NW22      29.70R WCI  16
Detroit        CLOUDY    22  16  78 N10       29.75R WCI  11
Chicago O`Hare PTCLDY    20  12  71 N12       29.90R WCI   8
Minneapolis    CLOUDY    20  16  84 W6        30.01R WCI  12
Indianapolis   CLOUDY    30  20  66 N14G25    29.82R WCI  19
Toronto Canada PTCLDY     7   0  72 N16G23    29.67R WCI -11

$$




USA.gov is the U.S. government's official web portal to all federal, state and local government web resources and services.